Weather in Canelones

Uruguay     34°31′29″S   56°16′32″W
temp.,
°C
wind,
m/s
gust,
m/s
humid.,
%
clouds,
%
prec.,
mm/h
press.,
hPa
HPBL,
m
9 august, tue
tue900:00+9ese3769100 0.0 1030225
03:00+7ese3677100 0.0 103098
06:00+7se3385100 0.0 103049
09:00+9ese25775 0.0 1032175
12:00+14se55535 0.0 10321411
15:00+13se55505 0.0 10301407
18:00+9se36710 0.0 1030115
21:00+6se35900 0.0 103267
10 august, wed
wed1000:00+5ese33910 0.0 103135
03:00+4e22930 0.0 103018
06:00+4ne22940 0.0 102928
09:00+7ne11830 0.0 103090
12:00+13ne34505 0.0 1029811
15:00+15nne3448100 0.0 10261204
18:00+11ne3367100 0.0 102522
21:00+9ne3477100 0.0 102674
11 august, thu
thu1100:00+7ne36845 0.0 1026102
03:00+6nne36930 0.0 1025100
06:00+5nne35930 0.0 102580
09:00+7n47800 0.0 1026194
12:00+14n56580 0.0 1025882
15:00+17n67510 0.0 10221289
18:00+12nne47730 0.0 1021105
21:00+9nne410900 0.0 1022156
12 august, fri
fri1200:00+8nne410935 0.0 1022177
03:00+7nne310945 0.0 1021182
06:00+7ne399542 0.0 1020186
09:00+10nne41186100 0.0 1020297
12:00+16nne6863100 0.0 1018832
15:00+19n5758100 0.0 10161227
18:00+15n3679100 0.0 1015100
21:00+12nne4993100 0.0 1017147
13 august, sat
sat1300:00+11n310950 0.0 1017192
03:00+11n34960 0.0 101783
06:00+10n35961 0.0 101777
09:00+13n22885 0.0 1018115
12:00+19n22670 0.0 1018657
15:00+21nne33550 0.0 10161144
18:00+17ne33730 0.0 101620
21:00+13ne34900 0.0 101751